Other Public Products
Issued by NWS Grand Forks, ND

Home | Current Version | Previous Version | Text Only | Print | Product List | Glossary On
Versions: 1 2 3 4 5 6 7 8 9 10 11 12 13 14 15 16 17 18 19 20 21 22 23 24 25 26 27 28 29 30 31 32 33 34 35 36 37 38 39 40 41 42 43 44 45 46 47 48 49 50
000
FPUS83 KFGF 251310
OPUFGF
PRAIRIE TO PINES WEATHER ROUNDUP
NATIONAL WEATHER SERVICE EASTERN NORTH DAKOTA/GRAND FORKS ND
800 AM CDT TUE JUL 25 2017

 **SATELLITE DATA USED TO AUGMENT SKY COVER AT AUTOMATED STATIONS**
 *****  WEATHER ACROSS EASTERN NORTH DAKOTA  *****

CITY           SKY/WX    TMP DP  RH WIND       PRES   REMARKS
GRAND FORKS    CLOUDY    68  66  93 S6        29.87R
GRAND FORKS AF FAIR      68  66  94 S9        29.87R
GRAND CITY NWS NOT AVBL
BUXTON           N/A     66  66  98 CALM        N/A
DEVILS LAKE    FAIR      70  66  88 NW3       29.88S
FARGO          FAIR      71  65  81 S13       29.88R
WAHPETON ARPT  FAIR      68  63  83 S8        29.88R
$$

 *****  WEATHER ACROSS CENTRAL AND WESTERN NORTH DAKOTA  *****

CITY           SKY/WX    TMP DP  RH WIND       PRES   REMARKS
JAMESTOWN      FAIR      67  65  93 SE5       29.87F
BISMARCK       CLOUDY    69  66  90 S8        29.95R
MINOT          FAIR      65  48  54 NW15      29.93R
MINOT AFB      PTSUNNY   64  47  53 NW12      29.92R
GARRISON         N/A     68  54  60 N5        29.93R
WILLISTON      FAIR      65  45  48 N3        29.98S
DICKINSON      FAIR      65  52  62 N8        29.97R
HETTINGER      LGT RAIN  65  57  75 NE17G24   29.94F
$$

 *****  OTHER OBSERVATIONS NORTHEAST NORTH DAKOTA  *****

CITY           SKY/WX    TMP DP  RH WIND       PRES   REMARKS
WALHALLA       NOT AVBL
LANGDON        FAIR      66  66 100 SW3       29.87S
CAVALIER       FAIR      68  66  94 S6        29.84S
GRAFTON        FAIR      68  68 100 S7        29.88R
CANDO          NOT AVBL
FORT TOTTEN      N/A     66  65  96 CALM      29.95S
ROLLA            N/A     63  63 100 S5        29.90R
RUGBY          NOT AVBL
 ***** THE ABOVE OBSERVATIONS ARE NON NWS ARE NOT QUALITY
        CONTROLLED AND MAY MIS-REPORT RAIN FOR SNOW...
$$

 *****  OTHER OBSERVATIONS SOUTHEAST NORTH DAKOTA *****

CITY           SKY/WX    TMP DP  RH WIND       PRES   REMARKS
COOPERSTOWN    FAIR      68  66  94 CALM      29.88F
VALLEY CITY    FAIR      66  66 100 CALM      29.90F
OAKES          NOT AVBL
GWINNER        SUNNY     68  66  94 CALM      29.87S
SHEYENNE NWR     N/A     69  67  94 E7        29.95S
BUFFALO          N/A     66  64  93 CALM        N/A
WYNDMERE       NOT AVBL
 ***** THE ABOVE OBSERVATIONS ARE NON NWS ARE NOT QUALITY
       CONTROLLED AND MAY MIS-REPORT RAIN FOR SNOW...
$$

  *****  WEATHER ACROSS NORTHERN MINNESOTA  *****

CITY           SKY/WX    TMP DP  RH WIND       PRES   REMARKS
FLAG ISLAND    FAIR      68  64  88 S9        29.88S
WARROAD        FAIR      68  64  88 SW3       29.90R
ROSEAU         PTSUNNY   66  61  82 S5        29.88R
HALLOCK        FAIR      68  64  88 SW7       29.85S
THF RVR FALLS  PTSUNNY   67  64  90 S7        29.91R
HALSTAD        NOT AVBL
FOSSTON        FAIR      68  63  83 SE8       29.91S
BAUDETTE       FAIR      64  62  93 S10       29.92R
WASKISH        FAIR      64  63  94 S3        29.93S
CROOKSTON      PTSUNNY   68  64  88 SW5       29.90R
$$
  *****  WEATHER ACROSS CENTRAL AND WEST MINNESOTA  *****

CITY           SKY/WX    TMP DP  RH WIND       PRES   REMARKS
BEMIDJI        FAIR      65  62  89 S8        29.93F
PARK RAPIDS    CLOUDY    68  63  84 SE12      29.94R
WADENA         FAIR      66  64  94 SE10      29.92S
DETROIT LAKES  FAIR      68  63  83 SE8       29.93R
MOORHEAD       PTSUNNY   70  64  83 S10       29.89S
FERGUS FALLS   FAIR      70  64  83 S10G18    29.89R
ELBOW LAKE     FAIR      68  65  88 SE17      29.90R
MORRIS MN      FAIR      70  66  88 S15       29.88F
STAPLES        CLOUDY    66  63  88 SE9       29.94R
WHEATON        FAIR      70  64  83 SE9       29.88R
$$
  *****  WEATHER ELSEWHERE ACROSS MINNESOTA  *****

CITY           SKY/WX    TMP DP  RH WIND       PRES   REMARKS
DULUTH         FAIR      63  60  90 SE12      30.04S
INTRNTL FALLS  FAIR      64  59  83 VRB6      29.96R
ELY            FAIR      64  57  77 S9        30.03S
CLOQUET        FAIR      64  59  82 SE5       30.03F
BRAINERD       PTSUNNY   67  62  84 S9        29.96F
HIBBING        FAIR      62  60  93 SE7       30.00F
ALEXANDRIA     PTSUNNY   69  65  86 S16       29.93F
SAINT CLOUD    PTSUNNY   67  65  93 SE8       29.97F
MINNEAPOLIS    CLOUDY    68  62  81 SE8       30.03F
$$

  *****  WEATHER ACROSS SOUTH DAKOTA  *****

CITY           SKY/WX    TMP DP  RH WIND       PRES   REMARKS
SIOUX FALLS    FAIR      73  69  87 S13       29.92S
BROOKINGS      FAIR      70  66  87 S15       29.91R
WATERTOWN      FAIR      69  32  25 S13       29.87S
HURON          FAIR      73  69  87 S12       29.83R
SISSETON         N/A     69  67  93 S9        29.85S
ABERDEEN       FAIR      71  67  87 CALM      29.86R
MITCHELL       FAIR      76  69  79 S9        29.85R
PIERRE         FAIR      73  65  75 CALM      29.83R
MOBRIDGE       FAIR      70  67  90 NE5       29.83F
RAPID CITY     FAIR      69  62  78 NW9       29.93R
$$

  *****  SOME WEATHER IN NEARBY STATES *****

CITY           SKY/WX    TMP DP  RH WIND       PRES   REMARKS
GLASGOW MT     FAIR      58  46  64 NW10      30.04R
GREAT FALLS MT FAIR      50  39  66 NW5       30.18R
CHEYENNE WY    FAIR      66  42  41 NW6       30.12R
SCOTTSBLUFF NE FAIR      72  58  61 CALM      29.96R
OMAHA NE       FAIR      76  66  71 S17       30.02R
DES MOINES IA  FAIR      71  66  84 SE12      30.09R
DAVENPORT IA   FAIR      66  62  87 SE8       30.18R
CHICAGO IL     FAIR      70  60  70 SE12      30.19R
EAU CLAIRE WI  FAIR      64  59  83 S9        30.10F
LA CROSSE WI   FAIR      68  60  75 S8        30.14R
$$

  *****  SOME NATIONAL WEATHER *****

CITY           SKY/WX    TMP DP  RH WIND       PRES   REMARKS
LA GUARDIA NY  CLOUDY    65  60  84 NE9       30.05R
RALEIGH NC     PTSUNNY   83  71  67 VRB3      30.06S
ATLANTA GA     CLOUDY    76  72  87 W6        30.11R
NEW ORLEANS LA FAIR      80  78  94 SW6       30.13R
OKLAHOMA CITY  FAIR      75  72  90 S10       30.08R
ALBUQUERQUE NM MOCLDY    70  60  70 S9        30.22R
SALT LAKE CITY LGT RAIN  71  63  75 SE12      30.10R
LOS ANGELES CA CLOUDY    68  65  90 W6        29.94S
BOISE ID       FAIR      73  50  44 S6        29.93R
SEATTLE WA     FAIR      60  51  72 CALM      30.03R
$$

*** WEATHER ACROSS MANITOBA...SASKATCHEWAN AND ONTARIO ***
                ***ONTARIO***

CITY           SKY/WX    TMP DP  RH WIND       PRES   REMARKS
GERALDTON      PTSUNNY   64  54  68 S10       30.07F
THUNDER BAY    PTSUNNY   59  55  88 E3        30.07F
SIOUX LOOKOUT  PTSUNNY   64  59  82 S12       29.95R
TORONTO        PTSUNNY   64  55  72 N10       30.18R
BIG TROUT LK   LGT RAIN  64  63  94 S9        29.77F
PICKLE LAKE    PTSUNNY   66  59  77 S12       29.89F
DRYDEN         PTSUNNY   64  59  82 S12G18    29.95R
KENORA         LGT RAIN  64  63  94 S9        29.91F
$$
                *** MANITOBA***

CITY           SKY/WX    TMP DP  RH WIND       PRES   REMARKS
BRANDON        MOSUNNY   59  52  77 W12       29.84S
DAUPHIN        SUNNY     63  52  67 W18G26    29.74F
ISLAND LAKE    PTSUNNY   68  64  88 S6        29.63
PILOT MOUND      N/A    N/A N/A N/A W5          N/A
THE PAS        PTSUNNY   57  54  88 W3        29.58S
THOMPSON       PTSUNNY   61  55  82 W7        29.55S
WINNIPEG       PTSUNNY   66  66 100 SW13      29.80S
LYNN LAKE      CLOUDY    61  59  94 NE14      29.59R
CHURCHILL      CLOUDY    50  48  93 E9        29.67F
GILLAM         FOG       63  61  94 VRB2      29.55F VSB 1/8
$$
                ***SASKATCHEWAN***

CITY           SKY/WX    TMP DP  RH WIND       PRES   REMARKS
ESTEVAN        MOSUNNY   59  48  67 NW17      29.95R
KINDERSLEY     MOSUNNY   54  48  82 NW10      30.01R
LLOYDMINSTER   PTSUNNY   54  52  94 W10       29.97R
PRINCE ALBERT  PTSUNNY   61  57  88 W17G23    29.75R
REGINA         PTSUNNY   55  48  76 W15G21    29.92R
YORKTON        MOSUNNY   61  54  77 W14G20    29.78R


USA.gov is the U.S. government's official web portal to all federal, state and local government web resources and services.